Regional Weather Roundup
Issued by NWS Goodland, KS

Home | Current Version | Previous Version | Graphics & Text | Print | Product List | Glossary On
Versions: 1 2 3 4 5 6 7 8 9 10 11 12 13 14 15 16 17 18 19 20 21 22 23 24 25 26 27 28 29 30 31 32 33 34 35 36 37 38 39 40 41 42 43 44 45 46 47 48 49 50
000
ASUS43 KGLD 221608
RWRGLD

GOODLAND FORECAST AREA HOURLY WEATHER ROUNDUP
NATIONAL WEATHER SERVICE GOODLAND KS
900 AM MST SAT NOV 22 2014

...OFFICIAL OBSERVATIONS...

CITY           SKY/WX    TMP DP  RH WIND       PRES   REMARKS
GOODLAND KS    SUNNY     53  23  31 SW18      29.78F
HILL CITY KS   SUNNY     36  29  75 CALM      29.81F
IMPERIAL NEB   SUNNY     47  23  38 SW8       29.74F
MCCOOK NEB     SUNNY     36  25  64 SW5       29.76F
AKRON CO       SUNNY     53  15  22 SW20      29.74F
BURLINGTON CO  SUNNY     52  22  30 SW16      29.79F
LIMON CO       SUNNY     49  16  26 VRB3      29.80F
$$

...UNOFFICIAL OBSERVATIONS...

CITY           SKY/WX    TMP DP  RH WIND       PRES   REMARKS
COLBY KS       SUNNY     54  30  40 S10       29.78F
GOVE KS          N/A     43  32  65 MISG        N/A
NORTON KS      SUNNY     37  25  60 CALM      29.77F
SHARON SPRINGS   N/A     49  31  50 SW12        N/A
TRIBUNE KS     SUNNY     52  36  54 SW12      29.84F
TRENTON NEB      N/A     45  32  60 SW6         N/A
YUMA CO          N/A     52  20  28 SW17        N/A
$$



USA.gov is the U.S. government's official web portal to all federal, state and local government web resources and services.